Regional Weather Roundup
Issued by NWS

Home | Current Version | Previous Version | Graphics & Text | Print | Product List | Glossary On
Versions: 1 2 3 4 5 6 7 8 9 10 11 12 13 14 15 16 17 18 19 20 21 22 23 24 25 26 27 28 29 30 31 32 33 34 35 36 37 38 39 40 41 42 43 44 45 46 47 48 49 50
000
ASUS45 KABQ 300801
RWRNM
WEATHER ROUNDUP FOR NEW MEXICO
NATIONAL WEATHER SERVICE ALBUQUERQUE NM
200 AM MDT THU OCT 30 2014

NOTE: "FAIR" MEANS FEW OR NO CLOUDS BELOW 12,000 FEET AGL WITH NO
       SIGNIFICANT WEATHER OR OBSTRUCTIONS TO VISION.

      THIS PRODUCT IS RELEASED AS TWO VERSIONS.  ONE VERSION NEAR
      THE TOP OF THE HOUR CONTAINING PRELIMINARY DATA FROM ALBUQUERQUE
      AND OTHER STATIONS.  A FINAL VERSION WITH ADDITIONAL DATA IS
      ISSUED ABOUT 10 MINUTES AFTER THE HOUR.

NMZ501-503-504-510>518-300900-
NORTHWEST PLATEAU/NORTHCENTRAL MOUNTAINS

CITY           SKY/WX    TMP DP  RH WIND       PRES   REMARKS
FARMINGTON     CLEAR     35  12  38 NE3       30.29R
LOS ALAMOS     CLEAR     47  10  23 SW3       30.33S
SANTA FE       CLEAR     41  10  28 N6        30.29R
TAOS           PTCLDY    32   9  37 N7        30.35R WCI  26
ANGEL FIRE     FAIR      26  13  57 CALM      30.39R

$$
NMZ402-403-502-505>509-300900-
WESTCENTRAL MOUNTAINS/SOUTHWEST MOUNTAINS

CITY           SKY/WX    TMP DP  RH WIND       PRES   REMARKS
GALLUP         CLEAR     32  16  51 CALM      30.35S
GRANTS         PTCLDY    32  12  43 NW8G16    30.36R WCI  25
SILVER CITY    CLEAR     48  36  61 NW8       30.27S

$$
NMZ407-409-411-412-300900-
SOUTHERN DESERTS

CITY           SKY/WX    TMP DP  RH WIND       PRES   REMARKS
LORDSBURG      FAIR      46  36  66 S3        30.19S
DEMING         CLEAR     47  38  71 W5        30.19S
HOLLOMAN AFB   CLEAR     51  34  51 NE2       30.18R
T OR C         CLEAR     53  36  52 W9        30.21S

$$
NMZ519>523-300900-
CENTRAL VALLEYS/CENTRAL HIGHLANDS

CITY           SKY/WX    TMP DP  RH WIND       PRES   REMARKS
ALBUQUERQUE    CLEAR     51  16  24 NE3       30.27S
DOUBLE EAGLE   CLEAR     52  13  21 NW13      30.29F
MORIARTY ARPT  FAIR      30  12  48 CALM      30.29S
CLINES CORNERS PTCLDY    42   8  24 NW10      30.29R
BELEN          NOT AVBL
SOCORRO        FAIR      48  31  50 NW12      30.24S

$$
NMZ524>526-539-540-300900-
SOUTHCENTRAL MOUNTAINS

CITY           SKY/WX    TMP DP  RH WIND       PRES   REMARKS
RUIDOSO        CLEAR     46  27  46 W8        30.30F

$$
NMZ527>531-300900-
NORTHEAST HIGHLANDS/NORTHEAST PLAINS

CITY           SKY/WX    TMP DP  RH WIND       PRES   REMARKS
LAS VEGAS      CLEAR     44  11  26 N10       30.26R
RATON          CLEAR     51  14  22 N13       30.24R
CLAYTON        CLEAR     56  19  23 NW15      30.13R

$$
NMZ532>537-300900-
EASTCENTRAL PLAINS

CITY           SKY/WX    TMP DP  RH WIND       PRES   REMARKS
TUCUMCARI      CLEAR     49  43  80 SW6       30.10R
CANNON AFB     CLEAR     52  47  83 W8        30.14S
CLOVIS AIRPORT CLEAR     46  41  81 S7        30.16S

$$
NMZ028-029-538-300900-
SOUTHEAST PLAINS

CITY           SKY/WX    TMP DP  RH WIND       PRES   REMARKS
ROSWELL        CLEAR     46  44  93 CALM      30.14R
CARLSBAD       CLEAR     56  49  77 SW3       30.11F
HOBBS          CLEAR     54  52  94 SW6       30.15F


$$



USA.gov is the U.S. government's official web portal to all federal, state and local government web resources and services.